Flag for Canada Weather past 2 weeks in Caledon, Ontario, Canada

Now
66 °F

Clear.


Feels Like: 66 °F
Forecast: 60 / 91 °F
Wind: 2 mph from North

Location: Borden

Current Time: Jul 28, 2015 at 12:30:49 AM

Latest Report: Jul 27, 2015 at 11:00 PM


Visibility: 9 mi

Pressure: 30.02 "Hg

Humidity: 88%

Dew point: 63 °F

Location of CaledonLocation

Historic Weather in Caledon — Graph

°F

Caledon temperature yesterday

Maximum temperature yesterday: 91 °F (at 3:00 PM)
Minimum temperature yesterday: 55 °F (at 5:00 AM)
Average temperature yesterday: 73 °F

Past Weeks' High & Low Weather Summary

 TemperatureHumidityPressure
High91 °F (Jul 27, 3:00 PM)100% (Jul 13, 3:47 AM)30.14 "Hg (Jul 13, 3:47 AM)
Low41 °F (Jul 16, 5:00 AM)34% (Jul 23, 2:00 PM)29.50 "Hg (Jul 14, 3:00 PM)
Average69 °F73%29.85 "Hg
* Reported Jul 12 11:00 PM — Jul 27 11:00 PM, Caledon, Weather by CustomWeather, © 2015

Note: Actual official high and low records may vary slightly from our data, if they occured in-between our weather recording intervals... More about our weather records

Advertising

Caledon weather history for previous 24 hours

 ConditionsComfort  
Time TempWeatherWind HumidityBarometerVisibility
11:00 PM
Mon, Jul 27
66 °FClear.2 mph88%30.02 "Hg9 mi
10:00 PM70 °FClear.No wind78%30.01 "Hg9 mi
9:00 PM73 °FSunny.3 mph74%29.99 "Hg9 mi
8:00 PM81 °FSunny.3 mph54%29.98 "Hg9 mi
7:00 PM84 °FSunny.9 mph45%29.98 "Hg9 mi
6:00 PM86 °FSunny.8 mph43%29.98 "Hg9 mi
5:00 PM88 °FPartly sunny.5 mph40%29.98 "Hg9 mi
4:00 PM91 °FScattered clouds.8 mph36%29.98 "Hg9 mi
3:00 PM91 °FPassing clouds.6 mph34%29.99 "Hg9 mi
2:00 PM90 °FBroken clouds.6 mph36%29.99 "Hg9 mi
1:00 PM88 °FScattered clouds.2 mph43%30.01 "Hg9 mi
12:00 PM88 °FSunny.5 mph43%30.01 "Hg9 mi
11:00 AM84 °FSunny.5 mph48%30.02 "Hg9 mi
10:00 AM82 °FSunny.5 mph48%30.02 "Hg9 mi
9:00 AM77 °FSunny.3 mph54%30.02 "Hg9 mi
8:00 AM68 °FSunny.2 mph78%30.03 "Hg9 mi
7:00 AM59 °FClear.2 mph100%30.02 "Hg9 mi
6:00 AM55 °FClear.No wind100%29.99 "Hg9 mi
5:50 AM55 °FClear.No wind100%29.99 "Hg4 mi
5:00 AM55 °FClear.No wind100%29.99 "Hg9 mi
4:00 AM59 °FClear.No wind94%29.98 "Hg8 mi
3:03 AM59 °FClear.3 mph94%29.98 "Hg1 mi
2:59 AM57 °FClear.No wind100%29.98 "Hg0 mi
2:00 AM61 °FClear.3 mph94%29.98 "Hg9 mi
1:00 AM61 °FClear.No wind94%29.99 "Hg9 mi
12:00 AM63 °FClear.2 mph94%29.99 "Hg9 mi
Weather by CustomWeather, © 2015

See weather overviewHow to use our weather pages